When you browse on this site, cookies collect data to enhance your experience and personalize the content and advertising you see.
Visit our Privacy Policy to learn more. By continuing to use the site, you agree to this use of cookies and data.
  • In United Kingdom
  • List of Countries
  • For 7 days
  • Water Temperature
  • Satellite Maps
  • Weather Map
  • Weather Widgets
  • user-avatar
    Login

    Hourly Weather Sevan

    Today, 23 April, Tuesday

    Time Temperature Precipitation Wind Pressure Humidity
    00:00 +1°C° 0.1 mm 2 mps 639 mmHg 73%
    01:00 +1°C° 0.1 mm 2 mps 640 mmHg 74%
    02:00 +1°C° 0.1 mm 2 mps 640 mmHg 74%
    03:00 +1°C° 0 mm 2 mps 640 mmHg 74%
    04:00 +1°C° 0.1 mm 2 mps 640 mmHg 74%
    05:00 +1°C° 0.1 mm 2 mps 641 mmHg 73%
    06:00 +3°C° 0.1 mm 1 mps 641 mmHg 73%
    07:00 +4°C° 0.1 mm 1 mps 641 mmHg 68%
    08:00 +5°C° 0.1 mm 1 mps 642 mmHg 63%
    09:00 +5°C° 0 mm 2 mps 642 mmHg 56%
    10:00 +6°C° 0.1 mm 2 mps 642 mmHg 54%
    11:00 +7°C° 0.1 mm 2 mps 642 mmHg 52%
    12:00 +7°C° 0.1 mm 2 mps 642 mmHg 50%
    13:00 +8°C° 0.1 mm 2 mps 642 mmHg 51%
    14:00 +8°C° 0.1 mm 2 mps 642 mmHg 51%
    15:00 +9°C° 0.1 mm 1 mps 642 mmHg 52%
    16:00 +9°C° 0.2 mm 1 mps 643 mmHg 54%
    17:00 +8°C° 0.2 mm 1 mps 643 mmHg 57%
    18:00 +8°C° 0.2 mm 1 mps 643 mmHg 60%
    19:00 +7°C° 0.1 mm 1 mps 643 mmHg 64%
    20:00 +6°C° 0.1 mm 1 mps 644 mmHg 67%
    21:00 +5°C° 0.1 mm 1 mps 644 mmHg 70%
    22:00 +4°C° 0 mm 1 mps 644 mmHg 71%
    23:00 +4°C° 0 mm 1 mps 644 mmHg 72%

    Tomorrow, 24 April, Wednesday

    Time Temperature Precipitation Wind Pressure Humidity
    00:00 +3°C° 0 mm 1 mps 645 mmHg 74%
    01:00 +3°C° 0 mm 1 mps 645 mmHg 75%
    02:00 +3°C° 0 mm 1 mps 645 mmHg 76%
    03:00 +2°C° 0 mm 1 mps 645 mmHg 78%
    04:00 +3°C° 0 mm 1 mps 645 mmHg 77%
    05:00 +3°C° 0 mm 1 mps 646 mmHg 77%
    06:00 +3°C° 0 mm 1 mps 646 mmHg 76%
    07:00 +4°C° 0 mm 1 mps 646 mmHg 69%
    08:00 +5°C° 0 mm 1 mps 646 mmHg 63%
    09:00 +7°C° 0 mm 1 mps 646 mmHg 56%
    10:00 +8°C° 0.1 mm 1 mps 646 mmHg 54%
    11:00 +7°C° 0.1 mm 2 mps 646 mmHg 53%
    12:00 +8°C° 0.1 mm 2 mps 646 mmHg 51%
    13:00 +8°C° 0.1 mm 2 mps 645 mmHg 51%
    14:00 +9°C° 0.1 mm 2 mps 645 mmHg 50%
    15:00 +10°C° 0.1 mm 1 mps 644 mmHg 50%
    16:00 +10°C° 0.1 mm 1 mps 644 mmHg 52%
    17:00 +9°C° 0.1 mm 1 mps 644 mmHg 54%
    18:00 +9°C° 0.1 mm 1 mps 644 mmHg 56%
    19:00 +8°C° 0.2 mm 1 mps 644 mmHg 60%
    20:00 +7°C° 0.2 mm 1 mps 645 mmHg 64%
    21:00 +5°C° 0.2 mm 2 mps 645 mmHg 68%
    22:00 +6°C° 0.3 mm 1 mps 645 mmHg 70%
    23:00 +6°C° 0.3 mm 1 mps 645 mmHg 72%

    Day after tomorrow, 25 April, Thursday

    Time Temperature Precipitation Wind Pressure Humidity
    00:00 +5°C° 0.3 mm 1 mps 645 mmHg 74%
    01:00 +5°C° 0.6 mm 1 mps 645 mmHg 75%
    02:00 +5°C° 0.6 mm 1 mps 645 mmHg 76%
    03:00 +5°C° 0.6 mm 1 mps 645 mmHg 77%
    04:00 +5°C° 0.5 mm 1 mps 645 mmHg 78%
    05:00 +5°C° 0.5 mm 1 mps 645 mmHg 79%
    06:00 +4°C° 0.5 mm 1 mps 645 mmHg 79%
    07:00 +5°C° 0.2 mm 1 mps 645 mmHg 76%
    08:00 +6°C° 0.2 mm 1 mps 645 mmHg 73%
    09:00 +6°C° 0.2 mm 1 mps 645 mmHg 70%
    10:00 +7°C° 0.1 mm 1 mps 645 mmHg 67%
    11:00 +8°C° 0.1 mm 1 mps 645 mmHg 63%
    12:00 +9°C° 0.1 mm 1 mps 645 mmHg 59%
    13:00 +10°C° 0.1 mm 1 mps 645 mmHg 57%
    14:00 +9°C° 0.1 mm 2 mps 645 mmHg 56%
    15:00 +10°C° 0.1 mm 2 mps 645 mmHg 54%
    16:00 +9°C° 0.1 mm 2 mps 644 mmHg 56%
    17:00 +9°C° 0.1 mm 2 mps 644 mmHg 59%
    18:00 +8°C° 0.1 mm 2 mps 644 mmHg 61%
    19:00 +7°C° 0 mm 2 mps 644 mmHg 64%
    20:00 +5°C° 0 mm 2 mps 644 mmHg 68%
    21:00 +4°C° 0 mm 2 mps 645 mmHg 71%
    22:00 +3°C° 0 mm 2 mps 645 mmHg 72%
    23:00 +3°C° 0 mm 2 mps 645 mmHg 72%

    26 April, Friday

    Time Temperature Precipitation Wind Pressure Humidity
    00:00 +2°C° 0 mm 2 mps 645 mmHg 73%
    01:00 +2°C° 0 mm 2 mps 645 mmHg 72%
    02:00 +2°C° 0 mm 2 mps 644 mmHg 72%
    03:00 +2°C° 0 mm 2 mps 644 mmHg 71%
    04:00 +2°C° 0 mm 2 mps 644 mmHg 70%
    05:00 +2°C° 0 mm 2 mps 645 mmHg 70%
    06:00 +2°C° 0 mm 2 mps 645 mmHg 69%
    07:00 +4°C° 0 mm 2 mps 645 mmHg 62%
    08:00 +7°C° 0 mm 1 mps 645 mmHg 56%
    09:00 +9°C° 0 mm 1 mps 645 mmHg 49%
    10:00 +10°C° 0 mm 1 mps 645 mmHg 47%
    11:00 +11°C° 0 mm 1 mps 645 mmHg 45%
    12:00 +12°C° 0 mm 1 mps 645 mmHg 43%
    13:00 +12°C° 0 mm 1 mps 644 mmHg 43%
    14:00 +12°C° 0 mm 1 mps 644 mmHg 44%
    15:00 +13°C° 0 mm 1 mps 644 mmHg 44%
    16:00 +12°C° 0 mm 1 mps 644 mmHg 47%
    17:00 +11°C° 0 mm 1 mps 644 mmHg 50%
    18:00 +11°C° 0 mm 1 mps 643 mmHg 52%
    19:00 +9°C° 0 mm 1 mps 644 mmHg 57%
    20:00 +8°C° 0 mm 1 mps 644 mmHg 62%
    21:00 +6°C° 0 mm 2 mps 644 mmHg 67%
    22:00 +5°C° 0 mm 2 mps 644 mmHg 69%
    23:00 +5°C° 0 mm 2 mps 644 mmHg 72%

    27 April, Saturday

    Time Temperature Precipitation Wind Pressure Humidity
    00:00 +5°C° 0 mm 2 mps 644 mmHg 74%
    01:00 +4°C° 0 mm 2 mps 644 mmHg 75%
    02:00 +4°C° 0 mm 2 mps 644 mmHg 76%
    03:00 +4°C° 0 mm 2 mps 644 mmHg 78%
    04:00 +4°C° 0 mm 2 mps 644 mmHg 77%
    05:00 +5°C° 0 mm 1 mps 644 mmHg 76%
    06:00 +5°C° 0 mm 1 mps 644 mmHg 75%
    07:00 +7°C° 0 mm 1 mps 644 mmHg 67%
    08:00 +8°C° 0 mm 1 mps 644 mmHg 59%
    09:00 +10°C° 0 mm 1 mps 644 mmHg 51%
    10:00 +10°C° 0 mm 2 mps 644 mmHg 49%
    11:00 +12°C° 0 mm 2 mps 644 mmHg 48%
    12:00 +13°C° 0 mm 2 mps 644 mmHg 46%
    13:00 +13°C° 0 mm 2 mps 644 mmHg 45%
    14:00 +13°C° 0 mm 2 mps 643 mmHg 43%
    15:00 +14°C° 0 mm 2 mps 643 mmHg 42%
    16:00 +13°C° 0 mm 2 mps 643 mmHg 43%
    17:00 +12°C° 0 mm 1 mps 642 mmHg 45%
    18:00 +12°C° 0 mm 1 mps 642 mmHg 46%
    19:00 +10°C° 0 mm 1 mps 642 mmHg 50%
    20:00 +9°C° 0 mm 1 mps 642 mmHg 54%
    21:00 +6°C° 0 mm 2 mps 642 mmHg 59%
    22:00 +6°C° 0 mm 2 mps 642 mmHg 61%
    23:00 +6°C° 0 mm 1 mps 642 mmHg 64%

    28 April, Sunday

    Time Temperature Precipitation Wind Pressure Humidity
    00:00 +6°C° 0 mm 1 mps 642 mmHg 67%
    01:00 +6°C° 0 mm 1 mps 642 mmHg 66%
    02:00 +5°C° 0 mm 1 mps 641 mmHg 65%
    03:00 +5°C° 0 mm 1 mps 641 mmHg 65%
    04:00 +5°C° 0 mm 1 mps 641 mmHg 60%
    05:00 +6°C° 0 mm 1 mps 641 mmHg 56%
    06:00 +6°C° 0 mm 1 mps 641 mmHg 52%
    07:00 +8°C° 0 mm 1 mps 641 mmHg 49%
    08:00 +9°C° 0 mm 2 mps 641 mmHg 45%
    09:00 +10°C° 0 mm 2 mps 641 mmHg 42%
    10:00 +12°C° 0 mm 2 mps 641 mmHg 42%
    11:00 +13°C° 0 mm 2 mps 641 mmHg 41%
    12:00 +13°C° 0 mm 3 mps 641 mmHg 41%
    13:00 +13°C° 0 mm 3 mps 641 mmHg 42%
    14:00 +13°C° 0 mm 3 mps 641 mmHg 44%
    15:00 +12°C° 0 mm 3 mps 641 mmHg 45%
    16:00 +13°C° 0 mm 2 mps 640 mmHg 48%
    17:00 +12°C° 0 mm 2 mps 640 mmHg 51%
    18:00 +10°C° 0 mm 2 mps 640 mmHg 54%
    19:00 +10°C° 0.1 mm 1 mps 640 mmHg 56%
    20:00 +9°C° 0.1 mm 1 mps 641 mmHg 58%
    21:00 +8°C° 0.1 mm 1 mps 641 mmHg 60%
    22:00 +8°C° 0 mm 1 mps 641 mmHg 61%
    23:00 +7°C° 0 mm 1 mps 641 mmHg 62%
    Show more